Skip Page Navigation
NASA JPL Caltech
NASA Logo - Jet Propulsion Laboratory + View the NASA Portal
+ Center for Near-Earth Object Studies
JPL Home Earth Solar System Stars & Galaxies Technology
JPL Solar System Dynamics
BODIES ORBITS EPHEMERIDES TOOLS PHYSICAL DATA DISCOVERY FAQ SITE MAP
JPL Small-Body Database Browser
Search: [ help ]  
134060 (2004 XR43)
Classification: Main-belt Asteroid          SPK-ID: 2134060
Ephemeris | Orbit Diagram | Orbital Elements | Mission Design | Physical Parameters | Discovery Circumstances | Close-Approach Data ]

[ show orbit diagram ]
Orbital Elements at Epoch 2459000.5 (2020-May-31.0) TDB
Reference: JPL 18 (heliocentric ecliptic J2000)
 Element Value Uncertainty (1-sigma)   Units 
e .09663971512398907 5.2116e-08  
a 3.081714562296535 3.1282e-08 au
q 2.783898544902749 1.6138e-07 au
i 8.635289442687714 4.242e-06 deg
node 93.26585988921723 4.0169e-05 deg
peri 118.2449464859036 4.6764e-05 deg
M 185.9026302264097 2.6733e-05 deg
tp 2459956.101344044055
(2023-Jan-11.60134404)
0.00015498 TDB
period 1976.00046630943
5.41
3.0087e-05
8.237e-08
d
yr
n .1821861918243222 2.774e-09 deg/d
Q 3.37953057969032 3.4305e-08 au
  Orbit Determination Parameters
   # obs. used (total)      496  
   data-arc span      7629 days (20.89 yr)  
   first obs. used      1999-12-07  
   last obs. used      2020-10-26  
   planetary ephem.      DE431  
   SB-pert. ephem.      SB431-N16  
   condition code      0  
   norm. resid. RMS      .56882  
   source      ORB  
   producer      Otto Matic  
   solution date      2020-Nov-12 16:12:09  

Additional Information
 Earth MOID = 1.79027 au 
 Jupiter MOID = 1.65171 au 
 T_jup = 3.203 
[ show covariance matrix ]

Ephemeris | Orbit Diagram | Orbital Elements | Mission Design | Physical Parameters | Discovery Circumstances | Close-Approach Data ]

Physical Parameter Table
Parameter Symbol Value Units Sigma Reference Notes
absolute magnitude H 14.8   n/a MPO453825  

134060 (2004 XR43)          Discovered 2004-Dec-11 by CINEOS at Campo Imperatore
Reference: 20060711/Numbers.arcLast Updated: 2006-07-17

[ hide close-approach data ]
Close-Approach Data   ...sorted by Date/Time (TDB)
Date/Time (TDB) Time Uncertainty
(days_HH:MM)
Body Nominal Distance (au) Minimum Distance (au) Maximum Distance (au) V-relative (km/s) V-infinity (km/s) JD (TDB) Time Uncertainty (minutes) Semi-major axis (km) Semi-minor axis (km) range-LOV angle (deg) N-sigma BP Orbit Ref. Reference Modified
1917-Nov-18 02:04 00:05 Jupiter 1.77772978841328 1.77772778126727 1.77773179556504 2.94065906037734 2.77390512739558 2421550.586443437 4.86772725469096 207.782753844294 21.4503178247171 -73.2295046416032 1478043.41273656 T 18 CATAB v2.0f-lin.ifort 2020-Nov-12 16:12:11 2020-Nov-12 16:12
1927-Jul-31 10:48 00:05 Jupiter 1.74841780406047 1.74841647663247 1.74841913150527 2.19732259572881 1.96451644475212 2425092.950336092 4.69452831212404 343.237187923891 15.4832617340728 85.5122423367542 2107555.30448113 T 18 CATAB v2.0f-lin.ifort 2020-Nov-12 16:12:11 2020-Nov-12 16:12
1977-Oct-29 15:34 00:02 Jupiter 1.91365191874443 1.9136507048539 1.91365313263671 3.49403584205929 3.36497317614405 2443446.148502709 1.84712664277868 125.085022175604 24.2105696659562 -68.4568056940623 2378949.07654482 T 18 CATAB v2.0f-lin.ifort 2020-Nov-12 16:12:11 2020-Nov-12 16:12
1987-Aug-04 15:04 00:02 Jupiter 1.68158265480283 1.68158209890479 1.68158321070115 1.95496507329604 1.67764040784783 2447012.127454892 1.54082537177774 195.149073760824 33.323312019758 -85.6334393909853 1779948.26494889 T 18 CATAB v2.0f-lin.ifort 2020-Nov-12 16:12:11 2020-Nov-12 16:12
2047-Aug-01 19:41 00:02 Jupiter 1.66939258497386 1.66939206728719 1.669393102661 2.2762661030154 2.04123003516197 2468924.320224396 1.63942262708275 145.48068046408 24.1670785864725 -79.6567704984153 1829589.88595809 T 18 CATAB v2.0f-lin.ifort 2020-Nov-12 16:12:11 2020-Nov-12 16:12
2057-Apr-10 11:24 00:02 Jupiter 1.91487600202456 1.91487506942684 1.91487693462326 3.16030737931209 3.01709572812887 2472463.974789716 2.0910013597377 115.35042817925 25.3936096278412 -80.1277537346947 2499672.95753402 T 18 CATAB v2.0f-lin.ifort 2020-Nov-12 16:12:11 2020-Nov-12 16:12
2107-Jul-21 06:05 00:05 Jupiter 1.72511611359571 1.72511492378334 1.72511730341141 2.77674127824329 2.5938972869748 2490826.753169859 4.55956881380967 162.128279933886 17.0582706348436 -80.7335060084483 1457271.52324904 T 18 CATAB v2.0f-lin.ifort 2020-Nov-12 16:12:11 2020-Nov-12 16:12
2117-Apr-02 15:52 00:05 Jupiter 1.79673103803388 1.79672921599195 1.79673286009522 2.40560122888312 2.20092454349223 2494370.161216693 5.3451459194296 349.988230961068 17.3126947415067 -88.8117544520839 2261407.49418252 T 18 CATAB v2.0f-lin.ifort 2020-Nov-12 16:12:11 2020-Nov-12 16:12
2167-Jul-01 02:44 00:07 Jupiter 1.8454465732364 1.84544337542428 1.84544977107747 3.26142620773883 3.11752169313402 2512721.613944443 7.2783685152089 411.580715816041 20.5201786806919 -71.7282151928926 2321045.70558563 T 18 CATAB v2.0f-lin.ifort 2020-Nov-12 16:12:11 2020-Nov-12 16:12
2177-Apr-03 02:25 00:09 Jupiter 1.70424208608452 1.70424013881376 1.70424403349604 2.0456784989663 1.7862765345763 2516285.600751162 8.55762839890247 870.037317495875 25.7985498386678 -85.951894793757 1890696.01253786 T 18 CATAB v2.0f-lin.ifort 2020-Nov-12 16:12:11 2020-Nov-12 16:12

Alternate Designations
 2004 XR43 = 2006 BN219 
Ephemeris | Orbit Diagram | Orbital Elements | Mission Design | Physical Parameters | Discovery Circumstances | Close-Approach Data ]
ABOUT SSD CREDITS/AWARDS PRIVACY/COPYRIGHT GLOSSARY LINKS
FirstGov 2020-Dec-02 03:56 UT
(server date/time)  
NASA Home Page
Site Manager:   Ryan S. Park
Webmaster  Alan B. Chamberlin